Terminal Aerodrome Forecast
Issued by NWS

Home | Current Version | Previous Version | Text Only | Print | Product List | Glossary On
Versions: 1 2 3 4 5 6 7 8 9 10 11 12 13 14 15 16
000
FTUS45 KLKN 310058 AAB
TAFELY
TAF AMD
KELY 310058Z 3101/3124 15010KT P6SM BKN200
     FM310600 19015G25KT P6SM BKN150
     FM311800 22020G35KT P6SM BKN120=

USA.gov is the U.S. government's official web portal to all federal, state and local government web resources and services.